Location: ????????
(60.4333°N, 46.4710°E)
Time: 19:43:34
(UTC+00:00)

SL-16 R/B - Pass Details

Date: 25 November 2020
Orbit: 841 x 848 km, 71.0° (Epoch: 16 January)

Event Time Altitude Azimuth Distance (km) Brightness Sun altitude
Rises 16:38:29 0° 226° (SW) 3,393 5.7 -32.4°
Reaches altitude 10° 16:40:56 10° 228° (SW) 2,461 4.9 -32.7°
Enters shadow 16:44:20 38° 236° (WSW) 1,271 3.3 -33.1°
